Printer-friendly version

IAU Minor Planet Center

Minor Planet Center

MPEC 2003-M14 : 2003 HA22

The following Minor Planet Electronic Circular may be linked-to from your own Web pages, but must not otherwise be redistributed electronically.


Read MPEC 2003-M13 Read MPEC 2003-M15


M.P.E.C. 2003-M14                                Issued 2003 June 17, 16:07 UT

     The Minor Planet Electronic Circulars contain information on unusual
         minor planets and routine data on comets.  They are published
   on behalf of Commission 20 of the International Astronomical Union by the
          Minor Planet Center, Smithsonian Astrophysical Observatory,
                          Cambridge, MA 02138, U.S.A.

             Prepared using the Tamkin Foundation Computer Network

                              MPC@CFA.HARVARD.EDU
          URL http://cfa-www.harvard.edu/iau/mpc.html  ISSN 1523-6714

                                   2003 HA22

Additional Observations:
     K03H22A  C2003 06 16.25447 14 23 19.56 -07 56 02.4          17.7        644
     K03H22A  C2003 06 16.27515 14 23 20.48 -07 56 13.9          17.6        644
     K03H22A  C2003 06 16.29635 14 23 21.43 -07 56 25.3          17.8        644
     K03H22A 5C2003 06 17.22604 14 24 17.36 -08 05 24.8          18.0 R      673
     K03H22A 5C2003 06 17.22813 14 24 17.46 -08 05 26.1                      673
     K03H22A 5C2003 06 17.23738 14 24 17.91 -08 05 31.6                      673
     K03H22A 5C2003 06 17.25081 14 24 18.56 -08 05 39.4                      673

Observer details:
644 Palomar Mountain/NEAT.  Observers S. Pravdo, D. MacDonald, M. Hicks,
    K. Lawrence, D. Rabinowitz, N. Ellman.  1.2-m Schmidt + CCD.
673 Table Mountain Observatory, Wrightwood.  Observer J. Young.  0.6-m
    reflector + CCD.

Orbital elements:
2003 HA22
Epoch 2003 June 10.0 TT = JDT 2452800.5                 MPC
M 345.83197              (2000.0)            P               Q
n   0.38373584     Peri.  163.44310     +0.26324606     +0.96443439
a   1.8754888      Node   121.81400     -0.88826960     +0.25194586
e   0.3946100      Incl.    1.60690     -0.37640221     +0.07993498
P   2.57           H   19.4           G   0.15           U   6
Residuals in seconds of arc
030427 699  0.2+  0.3+    030428 704  0.1+  0.1+    030617 673  0.1-  0.1+
030427 699  0.1-  0.9-    030428 704  0.2+  0.6+    030617 673  0.1-  0.0
030427 699  0.5-  0.3-    030428 704  0.5-  0.3+    030617 673  0.0   0.1-
030427 699  0.2-  0.2-    030616 644  0.1+  0.1+    030617 673  0.1-  0.0
030428 704  0.3+  0.2-    030616 644  0.2+  0.1-
030428 704  0.6+  0.3+    030616 644  0.0   0.1+

Ephemeris:
2003 HA22                a,e,i = 1.88, 0.39, 2                   q = 1.1354
Date    TT    R. A. (2000) Decl.     Delta      r     Elong.  Phase     V
2003 06 10    14 18.99   -07 08.2    0.234    1.194   135.8    36.3    18.1
2003 06 20    14 27.47   -08 34.6    0.221    1.167   128.9    42.7    18.1
2003 06 30    14 44.63   -10 57.3    0.210    1.148   124.2    47.1    18.1
2003 07 10    15 11.60   -14 09.6    0.203    1.138   122.0    49.3    18.1
2003 07 20    15 48.70   -17 50.3    0.201    1.136   122.0    49.3    18.0
2003 07 30    16 34.85   -21 22.0    0.206    1.143   123.8    47.5    18.1
2003 08 09    17 26.90   -24 00.5    0.221    1.159   126.5    44.7    18.2
2003 08 19    18 19.49   -25 16.6    0.247    1.183   128.8    41.8    18.4
2003 08 29    19 07.90   -25 12.6    0.286    1.214   130.1    39.5    18.7
2003 09 08    19 50.07   -24 10.5    0.337    1.251   130.0    38.1    19.1
2003 09 18    20 26.00   -22 34.0    0.401    1.294   128.7    37.3    19.5
2003 09 28    20 56.80   -20 39.5    0.476    1.340   126.3    37.1    19.9
2003 10 08    21 23.85   -18 35.7    0.562    1.389   123.2    37.0    20.4
2003 10 18    21 48.15   -16 27.7    0.660    1.441   119.5    37.0    20.8
2003 10 28    22 10.52   -14 17.6    0.768    1.493   115.4    37.0    21.2
2003 11 07    22 31.58   -12 06.3    0.885    1.547   110.9    36.7    21.6
2003 11 17    22 51.67   -09 54.8    1.012    1.601   106.3    36.4    21.9

Timothy B. Spahr             (C) Copyright 2003 MPC           M.P.E.C. 2003-M14

Read MPEC 2003-M13 Read MPEC 2003-M15


Our Web policy. Index to the CBAT/MPC/ICQ pages.


Valid HTML 4.01!